Year,Month,Day,Hour,Minute,Value (Times are PST for temperature in C)
2016,08,21,00,00,20.00
2016,08,21,00,01,19.90
2016,08,21,00,02,19.90
2016,08,21,00,03,19.90
2016,08,21,00,04,19.80
2016,08,21,00,05,19.80
2016,08,21,00,06,19.80
2016,08,21,00,07,19.70
2016,08,21,00,08,19.70
2016,08,21,00,09,19.70
2016,08,21,00,10,19.70
2016,08,21,00,11,19.70
2016,08,21,00,12,19.70
2016,08,21,00,13,19.60
2016,08,21,00,14,19.60
2016,08,21,00,15,19.60
2016,08,21,00,16,19.50
2016,08,21,00,17,19.50
2016,08,21,00,18,19.40
2016,08,21,00,19,19.40
2016,08,21,00,20,19.40
2016,08,21,00,21,19.30
2016,08,21,00,22,19.30
2016,08,21,00,23,19.30
2016,08,21,00,24,19.30
2016,08,21,00,25,19.20
2016,08,21,00,26,19.20
2016,08,21,00,27,19.20
2016,08,21,00,28,19.10
2016,08,21,00,29,19.10
2016,08,21,00,30,19.10
2016,08,21,00,31,19.00
2016,08,21,00,32,19.00
2016,08,21,00,33,18.90
2016,08,21,00,34,18.90
2016,08,21,00,35,18.80
2016,08,21,00,36,18.80
2016,08,21,00,37,18.80
2016,08,21,00,38,18.80
2016,08,21,00,39,18.70
2016,08,21,00,40,18.70
2016,08,21,00,41,18.70
2016,08,21,00,42,18.70
2016,08,21,00,43,18.70
2016,08,21,00,44,18.70
2016,08,21,00,45,18.70
2016,08,21,00,46,18.70
2016,08,21,00,47,18.70
2016,08,21,00,48,18.80
2016,08,21,00,49,18.70
2016,08,21,00,50,18.70
2016,08,21,00,51,18.70
2016,08,21,00,52,18.70
2016,08,21,00,53,18.70
2016,08,21,00,54,18.70
2016,08,21,00,55,18.70
2016,08,21,00,56,18.70
2016,08,21,00,57,18.70
2016,08,21,00,58,18.60
2016,08,21,00,59,18.60
2016,08,21,01,00,18.60
2016,08,21,01,01,18.60
2016,08,21,01,02,18.60
2016,08,21,01,03,18.60
2016,08,21,01,04,18.50
2016,08,21,01,05,18.50
2016,08,21,01,06,18.50
2016,08,21,01,07,18.50
2016,08,21,01,08,18.50
2016,08,21,01,09,18.40
2016,08,21,01,10,18.40
2016,08,21,01,11,18.40
2016,08,21,01,12,18.40
2016,08,21,01,13,18.40
2016,08,21,01,14,18.30
2016,08,21,01,15,18.30
2016,08,21,01,16,18.30
2016,08,21,01,17,18.30
2016,08,21,01,18,18.30
2016,08,21,01,19,18.20
2016,08,21,01,20,18.20
2016,08,21,01,21,18.20
2016,08,21,01,22,18.20
2016,08,21,01,23,18.20
2016,08,21,01,24,18.10
2016,08,21,01,25,18.10
2016,08,21,01,26,18.10
2016,08,21,01,27,18.10
2016,08,21,01,28,18.10
2016,08,21,01,29,18.00
2016,08,21,01,30,18.00
2016,08,21,01,31,18.00
2016,08,21,01,32,18.00
2016,08,21,01,33,17.90
2016,08,21,01,34,17.90
2016,08,21,01,35,17.90
2016,08,21,01,36,17.90
2016,08,21,01,37,17.90
2016,08,21,01,38,17.90
2016,08,21,01,39,17.90
2016,08,21,01,40,17.80
2016,08,21,01,41,17.80
2016,08,21,01,42,17.80
2016,08,21,01,43,17.80
2016,08,21,01,44,17.80
2016,08,21,01,45,17.70
2016,08,21,01,46,17.70
2016,08,21,01,47,17.70
2016,08,21,01,48,17.70
2016,08,21,01,49,17.60
2016,08,21,01,50,17.60
2016,08,21,01,51,17.60
2016,08,21,01,52,17.60
2016,08,21,01,53,17.60
2016,08,21,01,54,17.50
2016,08,21,01,55,17.50
2016,08,21,01,56,17.50
2016,08,21,01,57,17.50
2016,08,21,01,58,17.40
2016,08,21,01,59,17.40
2016,08,21,02,00,17.40
2016,08,21,02,01,17.40
2016,08,21,02,02,17.40
2016,08,21,02,03,17.30
2016,08,21,02,04,17.30
2016,08,21,02,05,17.30
2016,08,21,02,06,17.30
2016,08,21,02,07,17.30
2016,08,21,02,08,17.20
2016,08,21,02,09,17.20
2016,08,21,02,10,17.20
2016,08,21,02,11,17.20
2016,08,21,02,12,17.10
2016,08,21,02,13,17.10
2016,08,21,02,14,17.10
2016,08,21,02,15,17.10
2016,08,21,02,16,17.10
2016,08,21,02,17,17.10
2016,08,21,02,18,17.00
2016,08,21,02,19,17.00
2016,08,21,02,20,17.00
2016,08,21,02,21,17.00
2016,08,21,02,22,17.00
2016,08,21,02,23,17.00
2016,08,21,02,24,17.00
2016,08,21,02,25,16.90
2016,08,21,02,26,16.90
2016,08,21,02,27,16.90
2016,08,21,02,28,16.90
2016,08,21,02,29,16.90
2016,08,21,02,30,16.90
2016,08,21,02,31,16.90
2016,08,21,02,32,16.80
2016,08,21,02,33,16.80
2016,08,21,02,34,16.80
2016,08,21,02,35,16.80
2016,08,21,02,36,16.80
2016,08,21,02,37,16.80
2016,08,21,02,38,16.70
2016,08,21,02,39,16.70
2016,08,21,02,40,16.70
2016,08,21,02,41,16.70
2016,08,21,02,42,16.70
2016,08,21,02,43,16.60
2016,08,21,02,44,16.60
2016,08,21,02,45,16.60
2016,08,21,02,46,16.60
2016,08,21,02,47,16.60
2016,08,21,02,48,16.60
2016,08,21,02,49,16.50
2016,08,21,02,50,16.50
2016,08,21,02,51,16.50
2016,08,21,02,52,16.50
2016,08,21,02,53,16.40
2016,08,21,02,54,16.40
2016,08,21,02,55,16.40
2016,08,21,02,56,16.40
2016,08,21,02,57,16.40
2016,08,21,02,58,16.40
2016,08,21,02,59,16.40
2016,08,21,03,00,16.30
2016,08,21,03,01,16.30
2016,08,21,03,02,16.30
2016,08,21,03,03,16.30
2016,08,21,03,04,16.30
2016,08,21,03,05,16.30
2016,08,21,03,06,16.30
2016,08,21,03,07,16.30
2016,08,21,03,08,16.30
2016,08,21,03,09,16.20
2016,08,21,03,10,16.20
2016,08,21,03,11,16.20
2016,08,21,03,12,16.20
2016,08,21,03,13,16.20
2016,08,21,03,14,16.20
2016,08,21,03,15,16.20
2016,08,21,03,16,16.20
2016,08,21,03,17,16.20
2016,08,21,03,18,16.10
2016,08,21,03,19,16.10
2016,08,21,03,20,16.10
2016,08,21,03,21,16.10
2016,08,21,03,22,16.10
2016,08,21,03,23,16.00
2016,08,21,03,24,16.00
2016,08,21,03,25,15.90
2016,08,21,03,26,15.90
2016,08,21,03,27,15.90
2016,08,21,03,28,15.80
2016,08,21,03,29,15.80
2016,08,21,03,30,15.70
2016,08,21,03,31,15.70
2016,08,21,03,32,15.70
2016,08,21,03,33,15.60
2016,08,21,03,34,15.60
2016,08,21,03,35,15.60
2016,08,21,03,36,15.50
2016,08,21,03,37,15.50
2016,08,21,03,38,15.50
2016,08,21,03,39,15.50
2016,08,21,03,40,15.40
2016,08,21,03,41,15.40
2016,08,21,03,42,15.40
2016,08,21,03,43,15.40
2016,08,21,03,44,15.40
2016,08,21,03,45,15.40
2016,08,21,03,46,15.40
2016,08,21,03,47,15.40
2016,08,21,03,48,15.30
2016,08,21,03,49,15.30
2016,08,21,03,50,15.30
2016,08,21,03,51,15.30
2016,08,21,03,52,15.30
2016,08,21,03,53,15.30
2016,08,21,03,54,15.30
2016,08,21,03,55,15.30
2016,08,21,03,56,15.30
2016,08,21,03,57,15.30
2016,08,21,03,58,15.20
2016,08,21,03,59,15.20
2016,08,21,04,00,15.20
2016,08,21,04,01,15.20
2016,08,21,04,02,15.20
2016,08,21,04,03,15.10
2016,08,21,04,04,15.10
2016,08,21,04,05,15.10
2016,08,21,04,06,15.10
2016,08,21,04,07,15.10
2016,08,21,04,08,15.00
2016,08,21,04,09,15.00
2016,08,21,04,10,14.90
2016,08,21,04,11,14.90
2016,08,21,04,12,14.90
2016,08,21,04,13,14.90
2016,08,21,04,14,14.90
2016,08,21,04,15,14.80
2016,08,21,04,16,14.80
2016,08,21,04,17,14.80
2016,08,21,04,18,14.80
2016,08,21,04,19,14.80
2016,08,21,04,20,14.80
2016,08,21,04,21,14.80
2016,08,21,04,22,14.70
2016,08,21,04,23,14.70
2016,08,21,04,24,14.70
2016,08,21,04,25,14.70
2016,08,21,04,26,14.70
2016,08,21,04,27,14.70
2016,08,21,04,28,14.70
2016,08,21,04,29,14.70
2016,08,21,04,30,14.70
2016,08,21,04,31,14.70
2016,08,21,04,32,14.60
2016,08,21,04,33,14.60
2016,08,21,04,34,14.60
2016,08,21,04,35,14.60
2016,08,21,04,36,14.60
2016,08,21,04,37,14.60
2016,08,21,04,38,14.60
2016,08,21,04,39,14.50
2016,08,21,04,40,14.50
2016,08,21,04,41,14.50
2016,08,21,04,42,14.50
2016,08,21,04,43,14.40
2016,08,21,04,44,14.40
2016,08,21,04,45,14.40
2016,08,21,04,46,14.40
2016,08,21,04,47,14.40
2016,08,21,04,48,14.40
2016,08,21,04,49,14.40
2016,08,21,04,50,14.30
2016,08,21,04,51,14.30
2016,08,21,04,52,14.30
2016,08,21,04,53,14.30
2016,08,21,04,54,14.30
2016,08,21,04,55,14.30
2016,08,21,04,56,14.30
2016,08,21,04,57,14.30
2016,08,21,04,58,14.30
2016,08,21,04,59,14.20
2016,08,21,05,00,14.20
2016,08,21,05,01,14.20
2016,08,21,05,02,14.20
2016,08,21,05,03,14.20
2016,08,21,05,04,14.20
2016,08,21,05,05,14.10
2016,08,21,05,06,14.10
2016,08,21,05,07,14.10
2016,08,21,05,08,14.10
2016,08,21,05,09,14.10
2016,08,21,05,10,14.10
2016,08,21,05,11,14.10
2016,08,21,05,12,14.10
2016,08,21,05,13,14.10
2016,08,21,05,14,14.10
2016,08,21,05,15,14.10
2016,08,21,05,16,14.10
2016,08,21,05,17,14.10
2016,08,21,05,18,14.10
2016,08,21,05,19,14.10
2016,08,21,05,20,14.10
2016,08,21,05,21,14.10
2016,08,21,05,22,14.10
2016,08,21,05,23,14.10
2016,08,21,05,24,14.10
2016,08,21,05,25,14.10
2016,08,21,05,26,14.10
2016,08,21,05,27,14.00
2016,08,21,05,28,14.00
2016,08,21,05,29,14.00
2016,08,21,05,30,14.00
2016,08,21,05,31,14.00
2016,08,21,05,32,14.00
2016,08,21,05,33,14.00
2016,08,21,05,34,14.00
2016,08,21,05,35,14.00
2016,08,21,05,36,14.00
2016,08,21,05,37,14.00
2016,08,21,05,38,14.00
2016,08,21,05,39,14.00
2016,08,21,05,40,14.00
2016,08,21,05,41,13.90
2016,08,21,05,42,13.90
2016,08,21,05,43,13.90
2016,08,21,05,44,13.90
2016,08,21,05,45,13.90
2016,08,21,05,46,13.90
2016,08,21,05,47,13.90
2016,08,21,05,48,13.80
2016,08,21,05,49,13.80
2016,08,21,05,50,13.80
2016,08,21,05,51,13.80
2016,08,21,05,52,13.80
2016,08,21,05,53,13.80
2016,08,21,05,54,13.80
2016,08,21,05,55,13.80
2016,08,21,05,56,13.80
2016,08,21,05,57,13.80
2016,08,21,05,58,13.70
2016,08,21,05,59,13.70
2016,08,21,06,00,13.70
2016,08,21,06,01,13.70
2016,08,21,06,02,13.70
2016,08,21,06,03,13.70
2016,08,21,06,04,13.70
2016,08,21,06,05,13.70
2016,08,21,06,06,13.60
2016,08,21,06,07,13.60
2016,08,21,06,08,13.60
2016,08,21,06,09,13.60
2016,08,21,06,10,13.60
2016,08,21,06,11,13.60
2016,08,21,06,12,13.60
2016,08,21,06,13,13.60
2016,08,21,06,14,13.60
2016,08,21,06,15,13.60
2016,08,21,06,16,13.60
2016,08,21,06,17,13.60
2016,08,21,06,18,13.50
2016,08,21,06,19,13.50
2016,08,21,06,20,13.50
2016,08,21,06,21,13.50
2016,08,21,06,22,13.50
2016,08,21,06,23,13.50
2016,08,21,06,24,13.50
2016,08,21,06,25,13.50
2016,08,21,06,26,13.40
2016,08,21,06,27,13.40
2016,08,21,06,28,13.40
2016,08,21,06,29,13.40
2016,08,21,06,30,13.40
2016,08,21,06,31,13.40
2016,08,21,06,32,13.30
2016,08,21,06,33,13.30
2016,08,21,06,34,13.30
2016,08,21,06,35,13.30
2016,08,21,06,36,13.30
2016,08,21,06,37,13.20
2016,08,21,06,38,13.20
2016,08,21,06,39,13.20
2016,08,21,06,40,13.20
2016,08,21,06,41,13.20
2016,08,21,06,42,13.20
2016,08,21,06,43,13.10
2016,08,21,06,44,13.10
2016,08,21,06,45,13.10
2016,08,21,06,46,13.10
2016,08,21,06,47,13.10
2016,08,21,06,48,13.10
2016,08,21,06,49,13.10
2016,08,21,06,50,13.10
2016,08,21,06,51,13.20
2016,08,21,06,52,13.20
2016,08,21,06,53,13.20
2016,08,21,06,54,13.20
2016,08,21,06,55,13.20
2016,08,21,06,56,13.30
2016,08,21,06,57,13.30
2016,08,21,06,58,13.30
2016,08,21,06,59,13.30
2016,08,21,07,00,13.30
2016,08,21,07,01,13.30
2016,08,21,07,02,13.30
2016,08,21,07,03,13.30
2016,08,21,07,04,13.30
2016,08,21,07,05,13.30
2016,08,21,07,06,13.30
2016,08,21,07,07,13.30
2016,08,21,07,08,13.30
2016,08,21,07,09,13.30
2016,08,21,07,10,13.30
2016,08,21,07,11,13.30
2016,08,21,07,12,13.30
2016,08,21,07,13,13.30
2016,08,21,07,14,13.20
2016,08,21,07,15,13.30
2016,08,21,07,16,13.30
2016,08,21,07,17,13.30
2016,08,21,07,18,13.30
2016,08,21,07,19,13.30
2016,08,21,07,20,13.30
2016,08,21,07,21,13.30
2016,08,21,07,22,13.30
2016,08,21,07,23,13.30
2016,08,21,07,24,13.30
2016,08,21,07,25,13.30
2016,08,21,07,26,13.40
2016,08,21,07,27,13.40
2016,08,21,07,28,13.40
2016,08,21,07,29,13.40
2016,08,21,07,30,13.50
2016,08,21,07,31,13.50
2016,08,21,07,32,13.50
2016,08,21,07,33,13.60
2016,08,21,07,34,13.60
2016,08,21,07,35,13.60
2016,08,21,07,36,13.70
2016,08,21,07,37,13.70
2016,08,21,07,38,13.70
2016,08,21,07,39,13.70
2016,08,21,07,40,13.70
2016,08,21,07,41,13.80
2016,08,21,07,42,13.80
2016,08,21,07,43,13.80
2016,08,21,07,44,13.80
2016,08,21,07,45,13.90
2016,08,21,07,46,13.90
2016,08,21,07,47,13.90
2016,08,21,07,48,14.00
2016,08,21,07,49,14.00
2016,08,21,07,50,14.10
2016,08,21,07,51,14.20
2016,08,21,07,52,14.20
2016,08,21,07,53,14.30
2016,08,21,07,54,14.40
2016,08,21,07,55,14.40
2016,08,21,07,56,14.50
2016,08,21,07,57,14.60
2016,08,21,07,58,14.60
2016,08,21,07,59,14.70
2016,08,21,08,00,14.80
2016,08,21,08,01,14.80
2016,08,21,08,02,14.90
2016,08,21,08,03,15.00
2016,08,21,08,04,15.10
2016,08,21,08,05,15.20
2016,08,21,08,06,15.30
2016,08,21,08,07,15.30
2016,08,21,08,08,15.40
2016,08,21,08,09,15.50
2016,08,21,08,10,15.60
2016,08,21,08,11,15.70
2016,08,21,08,12,15.70
2016,08,21,08,13,15.80
2016,08,21,08,14,15.90
2016,08,21,08,15,16.00
2016,08,21,08,16,16.10
2016,08,21,08,17,16.10
2016,08,21,08,18,16.20
2016,08,21,08,19,16.30
2016,08,21,08,20,16.40
2016,08,21,08,21,16.50
2016,08,21,08,22,16.60
2016,08,21,08,23,16.70
2016,08,21,08,24,16.80
2016,08,21,08,25,16.80
2016,08,21,08,26,16.90
2016,08,21,08,27,16.90
2016,08,21,08,28,17.00
2016,08,21,08,29,17.00
2016,08,21,08,30,17.10
2016,08,21,08,31,17.20
2016,08,21,08,32,17.20
2016,08,21,08,33,17.30
2016,08,21,08,34,17.30
2016,08,21,08,35,17.40
2016,08,21,08,36,17.40
2016,08,21,08,37,17.40
2016,08,21,08,38,17.50
2016,08,21,08,39,17.50
2016,08,21,08,40,17.60
2016,08,21,08,41,17.60
2016,08,21,08,42,17.60
2016,08,21,08,43,17.70
2016,08,21,08,44,17.70
2016,08,21,08,45,17.70
2016,08,21,08,46,17.70
2016,08,21,08,47,17.70
2016,08,21,08,48,17.70
2016,08,21,08,49,17.80
2016,08,21,08,50,17.80
2016,08,21,08,51,17.80
2016,08,21,08,52,17.80
2016,08,21,08,53,17.80
2016,08,21,08,54,17.90
2016,08,21,08,55,17.90
2016,08,21,08,56,17.90
2016,08,21,08,57,17.90
2016,08,21,08,58,18.00
2016,08,21,08,59,18.00
2016,08,21,09,00,18.10
2016,08,21,09,01,18.10
2016,08,21,09,02,18.10
2016,08,21,09,03,18.20
2016,08,21,09,04,18.20
2016,08,21,09,05,18.20
2016,08,21,09,06,18.30
2016,08,21,09,07,18.30
2016,08,21,09,08,18.40
2016,08,21,09,09,18.50
2016,08,21,09,10,18.50
2016,08,21,09,11,18.60
2016,08,21,09,12,18.70
2016,08,21,09,13,18.70
2016,08,21,09,14,18.80
2016,08,21,09,15,18.80
2016,08,21,09,16,18.80
2016,08,21,09,17,18.90
2016,08,21,09,18,18.90
2016,08,21,09,19,18.90
2016,08,21,09,20,19.00
2016,08,21,09,21,19.00
2016,08,21,09,22,19.00
2016,08,21,09,23,19.10
2016,08,21,09,24,19.10
2016,08,21,09,25,19.10
2016,08,21,09,26,19.20
2016,08,21,09,27,19.20
2016,08,21,09,28,19.20
2016,08,21,09,29,19.30
2016,08,21,09,30,19.30
2016,08,21,09,31,19.30
2016,08,21,09,32,19.40
2016,08,21,09,33,19.40
2016,08,21,09,34,19.40
2016,08,21,09,35,19.40
2016,08,21,09,36,19.40
2016,08,21,09,37,19.40
2016,08,21,09,38,19.30
2016,08,21,09,39,19.30
2016,08,21,09,40,19.30
2016,08,21,09,41,19.20
2016,08,21,09,42,19.20
2016,08,21,09,43,19.10
2016,08,21,09,44,19.00
2016,08,21,09,45,19.00
2016,08,21,09,46,18.90
2016,08,21,09,47,18.90
2016,08,21,09,48,18.80
2016,08,21,09,49,18.80
2016,08,21,09,50,18.70
2016,08,21,09,51,18.70
2016,08,21,09,52,18.60
2016,08,21,09,53,18.50
2016,08,21,09,54,18.40
2016,08,21,09,55,18.40
2016,08,21,09,56,18.30
2016,08,21,09,57,18.30
2016,08,21,09,58,18.30
2016,08,21,09,59,18.30
2016,08,21,10,00,18.30
2016,08,21,10,01,18.30
2016,08,21,10,02,18.30
2016,08,21,10,03,18.30
2016,08,21,10,04,18.40
2016,08,21,10,05,18.40
2016,08,21,10,06,18.50
2016,08,21,10,07,18.50
2016,08,21,10,08,18.60
2016,08,21,10,09,18.70
2016,08,21,10,10,18.80
2016,08,21,10,11,18.80
2016,08,21,10,12,18.90
2016,08,21,10,13,18.90
2016,08,21,10,14,18.90
2016,08,21,10,15,19.00
2016,08,21,10,16,19.00
2016,08,21,10,17,18.90
2016,08,21,10,18,18.90
2016,08,21,10,19,18.90
2016,08,21,10,20,18.90
2016,08,21,10,21,18.90
2016,08,21,10,22,18.90
2016,08,21,10,23,18.90
2016,08,21,10,24,18.90
2016,08,21,10,25,19.00
2016,08,21,10,26,19.00
2016,08,21,10,27,19.10
2016,08,21,10,28,19.10
2016,08,21,10,29,19.20
2016,08,21,10,30,19.20
2016,08,21,10,31,19.30
2016,08,21,10,32,19.30
2016,08,21,10,33,19.40
2016,08,21,10,34,19.50
2016,08,21,10,35,19.50
2016,08,21,10,36,19.50
2016,08,21,10,37,19.60
2016,08,21,10,38,19.70
2016,08,21,10,39,19.70
2016,08,21,10,40,19.80
2016,08,21,10,41,19.90
2016,08,21,10,42,19.90
2016,08,21,10,43,19.90
2016,08,21,10,44,19.90
2016,08,21,10,45,19.90
2016,08,21,10,46,19.90
2016,08,21,10,47,20.00
2016,08,21,10,48,20.00
2016,08,21,10,49,20.10
2016,08,21,10,50,20.10
2016,08,21,10,51,20.10
2016,08,21,10,52,20.20
2016,08,21,10,53,20.20
2016,08,21,10,54,20.30
2016,08,21,10,55,20.30
2016,08,21,10,56,20.30
2016,08,21,10,57,20.40
2016,08,21,10,58,20.40
2016,08,21,10,59,20.50
2016,08,21,11,00,20.50
2016,08,21,11,01,20.60
2016,08,21,11,02,20.60
2016,08,21,11,03,20.60
2016,08,21,11,04,20.60
2016,08,21,11,05,20.50
2016,08,21,11,06,20.50
2016,08,21,11,07,20.50
2016,08,21,11,08,20.60
2016,08,21,11,09,20.60
2016,08,21,11,10,20.70
2016,08,21,11,11,20.70
2016,08,21,11,12,20.70
2016,08,21,11,13,20.70
2016,08,21,11,14,20.70
2016,08,21,11,15,20.70
2016,08,21,11,16,20.70
2016,08,21,11,17,20.80
2016,08,21,11,18,20.80
2016,08,21,11,19,20.80
2016,08,21,11,20,20.80
2016,08,21,11,21,20.80
2016,08,21,11,22,20.80
2016,08,21,11,23,20.80
2016,08,21,11,24,20.90
2016,08,21,11,25,21.00
2016,08,21,11,26,21.00
2016,08,21,11,27,21.10
2016,08,21,11,28,21.10
2016,08,21,11,29,21.10
2016,08,21,11,30,21.20
2016,08,21,11,31,21.20
2016,08,21,11,32,21.30
2016,08,21,11,33,21.30
2016,08,21,11,34,21.40
2016,08,21,11,35,21.40
2016,08,21,11,36,21.40
2016,08,21,11,37,21.50
2016,08,21,11,38,21.60
2016,08,21,11,39,21.70
2016,08,21,11,40,21.70
2016,08,21,11,41,21.80
2016,08,21,11,42,21.80
2016,08,21,11,43,21.80
2016,08,21,11,44,21.90
2016,08,21,11,45,22.00
2016,08,21,11,46,22.00
2016,08,21,11,47,22.10
2016,08,21,11,48,22.10
2016,08,21,11,49,22.20
2016,08,21,11,50,22.30
2016,08,21,11,51,22.30
2016,08,21,11,52,22.30
2016,08,21,11,53,22.40
2016,08,21,11,54,22.50
2016,08,21,11,55,22.60
2016,08,21,11,56,22.70
2016,08,21,11,57,22.70
2016,08,21,11,58,22.80
2016,08,21,11,59,22.80
2016,08,21,12,00,22.90
2016,08,21,12,01,22.90
2016,08,21,12,02,22.90
2016,08,21,12,03,23.00
2016,08,21,12,04,23.00
2016,08,21,12,05,23.10
2016,08,21,12,06,23.20
2016,08,21,12,07,23.20
2016,08,21,12,08,23.30
2016,08,21,12,09,23.30
2016,08,21,12,10,23.40
2016,08,21,12,11,23.50
2016,08,21,12,12,23.50
2016,08,21,12,13,23.40
2016,08,21,12,14,23.40
2016,08,21,12,15,23.40
2016,08,21,12,16,23.40
2016,08,21,12,17,23.40
2016,08,21,12,18,23.40
2016,08,21,12,19,23.40
2016,08,21,12,20,23.40
2016,08,21,12,21,23.40
2016,08,21,12,22,23.30
2016,08,21,12,23,23.10
2016,08,21,12,24,23.00
2016,08,21,12,25,22.90
2016,08,21,12,26,22.80
2016,08,21,12,27,22.70
2016,08,21,12,28,22.70
2016,08,21,12,29,22.60
2016,08,21,12,30,22.60
2016,08,21,12,31,22.50
2016,08,21,12,32,22.40
2016,08,21,12,33,22.30
2016,08,21,12,34,22.30
2016,08,21,12,35,22.20
2016,08,21,12,36,22.10
2016,08,21,12,37,22.10
2016,08,21,12,38,22.00
2016,08,21,12,39,22.00
2016,08,21,12,40,22.00
2016,08,21,12,41,22.00
2016,08,21,12,42,21.90
2016,08,21,12,43,21.90
2016,08,21,12,44,21.90
2016,08,21,12,45,21.90
2016,08,21,12,46,21.90
2016,08,21,12,47,21.80
2016,08,21,12,48,21.80
2016,08,21,12,49,21.80
2016,08,21,12,50,21.80
2016,08,21,12,51,21.80
2016,08,21,12,52,21.80
2016,08,21,12,53,21.80
2016,08,21,12,54,21.80
2016,08,21,12,55,21.80
2016,08,21,12,56,21.80
2016,08,21,12,57,21.90
2016,08,21,12,58,21.90
2016,08,21,12,59,21.90
2016,08,21,13,00,22.00
2016,08,21,13,01,22.10
2016,08,21,13,02,22.10
2016,08,21,13,03,22.20
2016,08,21,13,04,22.20
2016,08,21,13,05,22.30
2016,08,21,13,06,22.30
2016,08,21,13,07,22.20
2016,08,21,13,08,22.20
2016,08,21,13,09,22.10
2016,08,21,13,10,22.10
2016,08,21,13,11,22.00
2016,08,21,13,12,21.90
2016,08,21,13,13,21.90
2016,08,21,13,14,21.90
2016,08,21,13,15,21.80
2016,08,21,13,16,21.80
2016,08,21,13,17,21.80
2016,08,21,13,18,21.80
2016,08,21,13,19,21.80
2016,08,21,13,20,21.80
2016,08,21,13,21,21.80
2016,08,21,13,22,21.90
2016,08,21,13,23,21.90
2016,08,21,13,24,21.90
2016,08,21,13,25,21.80
2016,08,21,13,26,21.80
2016,08,21,13,27,21.80
2016,08,21,13,28,21.80
2016,08,21,13,29,21.80
2016,08,21,13,30,21.70
2016,08,21,13,31,21.60
2016,08,21,13,32,21.60
2016,08,21,13,33,21.50
2016,08,21,13,34,21.50
2016,08,21,13,35,21.40
2016,08,21,13,36,21.50
2016,08,21,13,37,21.50
2016,08,21,13,38,21.50
2016,08,21,13,39,21.50
2016,08,21,13,40,21.50
2016,08,21,13,41,21.40
2016,08,21,13,42,21.40
2016,08,21,13,43,21.30
2016,08,21,13,44,21.30
2016,08,21,13,45,21.30
2016,08,21,13,46,21.20
2016,08,21,13,47,21.20
2016,08,21,13,48,21.10
2016,08,21,13,49,21.10
2016,08,21,13,50,21.00
2016,08,21,13,51,21.00
2016,08,21,13,52,21.00
2016,08,21,13,53,21.00
2016,08,21,13,54,21.00
2016,08,21,13,55,21.10
2016,08,21,13,56,21.10
2016,08,21,13,57,21.10
2016,08,21,13,58,21.00
2016,08,21,13,59,21.00
2016,08,21,14,00,21.10
2016,08,21,14,01,21.10
2016,08,21,14,02,21.10
2016,08,21,14,03,21.20
2016,08,21,14,04,21.20
2016,08,21,14,05,21.20
2016,08,21,14,06,21.20
2016,08,21,14,07,21.20
2016,08,21,14,08,21.20
2016,08,21,14,09,21.20
2016,08,21,14,10,21.20
2016,08,21,14,11,21.20
2016,08,21,14,12,21.20
2016,08,21,14,13,21.20
2016,08,21,14,14,21.30
2016,08,21,14,15,21.30
2016,08,21,14,16,21.30
2016,08,21,14,17,21.30
2016,08,21,14,18,21.30
2016,08,21,14,19,21.30
2016,08,21,14,20,21.30
2016,08,21,14,21,21.30
2016,08,21,14,22,21.30
2016,08,21,14,23,21.40
2016,08,21,14,24,21.40
2016,08,21,14,25,21.50
2016,08,21,14,26,21.50
2016,08,21,14,27,21.50
2016,08,21,14,28,21.60
2016,08,21,14,29,21.60
2016,08,21,14,30,21.60
2016,08,21,14,31,21.60
2016,08,21,14,32,21.60
2016,08,21,14,33,21.60
2016,08,21,14,34,21.70
2016,08,21,14,35,21.80
2016,08,21,14,36,21.80
2016,08,21,14,37,21.90
2016,08,21,14,38,21.90
2016,08,21,14,39,22.10
2016,08,21,14,40,22.10
2016,08,21,14,41,22.20
2016,08,21,14,42,22.20
2016,08,21,14,43,22.30
2016,08,21,14,44,22.30
2016,08,21,14,45,22.30
2016,08,21,14,46,22.30
2016,08,21,14,47,22.30
2016,08,21,14,48,22.30
2016,08,21,14,49,22.30
2016,08,21,14,50,22.30
2016,08,21,14,51,22.40
2016,08,21,14,52,22.50
2016,08,21,14,53,22.50
2016,08,21,14,54,22.50
2016,08,21,14,55,22.60
2016,08,21,14,56,22.60
2016,08,21,14,57,22.60
2016,08,21,14,58,22.60
2016,08,21,14,59,22.50
2016,08,21,15,00,22.40
2016,08,21,15,01,22.40
2016,08,21,15,02,22.30
2016,08,21,15,03,22.40
2016,08,21,15,04,22.40
2016,08,21,15,05,22.50
2016,08,21,15,06,22.50
2016,08,21,15,07,22.60
2016,08,21,15,08,22.60
2016,08,21,15,09,22.60
2016,08,21,15,10,22.60
2016,08,21,15,11,22.60
2016,08,21,15,12,22.60
2016,08,21,15,13,22.60
2016,08,21,15,14,22.60
2016,08,21,15,15,22.60
2016,08,21,15,16,22.60
2016,08,21,15,17,22.60
2016,08,21,15,18,22.60
2016,08,21,15,19,22.60
2016,08,21,15,20,22.60
2016,08,21,15,21,22.60
2016,08,21,15,22,22.60
2016,08,21,15,23,22.70
2016,08,21,15,24,22.70
2016,08,21,15,25,22.80
2016,08,21,15,26,22.70
2016,08,21,15,27,22.70
2016,08,21,15,28,22.60
2016,08,21,15,29,22.40
2016,08,21,15,30,22.40
2016,08,21,15,31,22.30
2016,08,21,15,32,22.30
2016,08,21,15,33,22.20
2016,08,21,15,34,22.30
2016,08,21,15,35,22.30
2016,08,21,15,36,22.40
2016,08,21,15,37,22.40
2016,08,21,15,38,22.40
2016,08,21,15,39,22.40
2016,08,21,15,40,22.50
2016,08,21,15,41,22.50
2016,08,21,15,42,22.50
2016,08,21,15,43,22.50
2016,08,21,15,44,22.50
2016,08,21,15,45,22.60
2016,08,21,15,46,22.70
2016,08,21,15,47,22.80
2016,08,21,15,48,22.80
2016,08,21,15,49,22.80
2016,08,21,15,50,22.80
2016,08,21,15,51,22.90
2016,08,21,15,52,22.80
2016,08,21,15,53,22.80
2016,08,21,15,54,22.80
2016,08,21,15,55,22.80
2016,08,21,15,56,22.80
2016,08,21,15,57,22.70
2016,08,21,15,58,22.60
2016,08,21,15,59,22.60
2016,08,21,16,00,22.60
2016,08,21,16,01,22.70
2016,08,21,16,02,22.70
2016,08,21,16,03,22.80
2016,08,21,16,04,22.80
2016,08,21,16,05,22.80
2016,08,21,16,06,22.80
2016,08,21,16,07,22.70
2016,08,21,16,08,22.70
2016,08,21,16,09,22.60
2016,08,21,16,10,22.60
2016,08,21,16,11,22.60
2016,08,21,16,12,22.60
2016,08,21,16,13,22.50
2016,08,21,16,14,22.50
2016,08,21,16,15,22.50
2016,08,21,16,16,22.50
2016,08,21,16,17,22.50
2016,08,21,16,18,22.50
2016,08,21,16,19,22.60
2016,08,21,16,20,22.60
2016,08,21,16,21,22.50
2016,08,21,16,22,22.50
2016,08,21,16,23,22.50
2016,08,21,16,24,22.60
2016,08,21,16,25,22.50
2016,08,21,16,26,22.50
2016,08,21,16,27,22.50
2016,08,21,16,28,22.50
2016,08,21,16,29,22.50
2016,08,21,16,30,22.50
2016,08,21,16,31,22.40
2016,08,21,16,32,22.40
2016,08,21,16,33,22.40
2016,08,21,16,34,22.40
2016,08,21,16,35,22.30
2016,08,21,16,36,22.30
2016,08,21,16,37,22.30
2016,08,21,16,38,22.20
2016,08,21,16,39,22.20
2016,08,21,16,40,22.30
2016,08,21,16,41,22.30
2016,08,21,16,42,22.30
2016,08,21,16,43,22.40
2016,08,21,16,44,22.40
2016,08,21,16,45,22.40
2016,08,21,16,46,22.30
2016,08,21,16,47,22.30
2016,08,21,16,48,22.30
2016,08,21,16,49,22.30
2016,08,21,16,50,22.30
2016,08,21,16,51,22.30
2016,08,21,16,52,22.20
2016,08,21,16,53,22.20
2016,08,21,16,54,22.20
2016,08,21,16,55,22.20
2016,08,21,16,56,22.10
2016,08,21,16,57,22.10
2016,08,21,16,58,22.10
2016,08,21,16,59,22.10
2016,08,21,17,00,22.10
2016,08,21,17,01,22.00
2016,08,21,17,02,21.90
2016,08,21,17,03,21.80
2016,08,21,17,04,21.80
2016,08,21,17,05,21.80
2016,08,21,17,06,21.70
2016,08,21,17,07,21.70
2016,08,21,17,08,21.60
2016,08,21,17,09,21.60
2016,08,21,17,10,21.50
2016,08,21,17,11,21.50
2016,08,21,17,12,21.60
2016,08,21,17,13,21.60
2016,08,21,17,14,21.60
2016,08,21,17,15,21.60
2016,08,21,17,16,21.60
2016,08,21,17,17,21.60
2016,08,21,17,18,21.60
2016,08,21,17,19,21.60